Location: Unspecified
(0.0000°N, 0.0000°E)
Time: 05:39:21
(UTC+02:00)

IUS-9 SRM-1 - Visible Passes

Search period start: 27 June 2017 00:00
Search period end: 07 July 2017 00:00
Orbit: 227 x 19805 km, 26.5° (Epoch: 25 June)

Date Brightness Start Highest point End Pass type
(mag) Time Alt. Az. Time Alt. Az. Time Alt. Az.
27 Jun 6.5 18:27:37 10° WNW 22:18:16 51° SW 22:31:50 32° SSE visible
28 Jun 6.7 17:20:39 10° WNW 21:21:48 63° SW 21:44:27 22° SE visible
29 Jun 7.0 16:20:22 10° WNW 20:21:03 75° SW 20:57:00 11° SE visible
02 Jul 4.0 07:24:37 11° W 07:28:00 54° NNW 07:42:43 10° ENE visible
02 Jul 7.1 23:53:49 10° WSW 00:22:22 20° SW 00:22:22 20° SW visible
03 Jul 2.2 06:36:55 58° WSW 06:37:31 84° NNW 06:46:13 10° ENE visible
03 Jul 6.8 20:53:23 10° WNW 23:30:01 30° SW 23:34:39 28° SSW visible
04 Jul 4.5 05:49:09 23° E 05:49:09 23° E 05:52:01 10° ENE visible
04 Jul 6.6 18:56:39 10° WNW 22:35:44 40° SW 22:46:54 29° S visible
05 Jul 6.7 17:42:36 10° WNW 21:39:21 51° SW 21:59:05 23° SSE visible
06 Jul 6.9 16:39:15 10° WNW 20:39:08 63° SW 21:11:13 13° SE visible
